Pakanbaru, Indonesia

5:29 AM WIB on May 26, 2017 (GMT +0700)
Sultan Syarif Kasim Ii

Weather History for WIBB - April, 2013

Change the Weather History Date:

Thursday, April 25, 2013

  Actual Average Record
Temperature  
Mean Temperature 85 °F -  
Max Temperature 95 °F - - ()
Min Temperature 75 °F - - ()
Cooling Degree Days 20    
Growing Degree Days 35 (Base 50)    
Moisture  
Dew Point 75 °F    
Average Humidity 76    
Maximum Humidity 100    
Minimum Humidity 42    
Precipitation  
Precipitation 0.16 in - - ()
Sea Level Pressure  
Sea Level Pressure 29.80 in    
Wind  
Wind Speed 3 mph ()    
Max Wind Speed 29 mph    
Max Gust Speed -    
Visibility 5.2 miles    
Events Rain , Thunderstorm    
T = Trace of Precipitation, MM = Missing Value Source: Averaged Metar Reports

Daily Weather History Graph

Daily Weather History Graph

Search for Another Location

Airport or City:

Trip Planner

Search our weather history database for the weather conditions in past years. The results will help you decide how hot, cold, wet, or windy it might be!

Date:

Astronomy

Apr. 25, 2013 Rise Set
Actual Time 6:08 AM WIB 6:16 PM WIB
Civil Twilight 5:47 AM WIB 6:37 PM WIB
Nautical Twilight 5:22 AM WIB 7:01 PM WIB
Astronomical Twilight 4:57 AM WIB 7:26 PM WIB
Moon 5:51 PM WIB 5:22 AM WIB
Length of Visible Light 12h 50m
Length of Day
12h 07m
Waxing Gibbous, 99% of the Moon is Illuminated
Apr 25
Waxing Gibbous
Apr 26
Full
May 2
Last Quarter
May 10
New
May 18
First Quarter

Hourly Weather History & Observations

Time (WIB) Temp. Heat Index Dew Point Humidity Pressure Visibility Wind Dir Wind Speed Gust Speed Precip Events Conditions
1:00 AM 78 °F - 74 °F 83% 29.84 in 6 mi West 8.1 mph - -   Partly Cloudy
4:00 AM 76 °F - 75 °F 95% 29.78 in 6 mi Calm Calm - -   Scattered Clouds
6:00 AM 75.2 °F - 75.2 °F 100% 29.80 in 5.0 mi Calm Calm - N/A   Partly Cloudy
7:00 AM 76 °F - 74 °F 94% 29.82 in 6 mi Calm Calm - -   Scattered Clouds
7:00 AM 75.2 °F - 75.2 °F 100% 29.80 in 6.2 mi Calm Calm - N/A   Partly Cloudy
8:00 AM 77.0 °F - 75.2 °F 94% 29.83 in 6.2 mi Calm Calm - N/A   Partly Cloudy
10:00 AM 85 °F - 75 °F 66% 29.87 in 6 mi Calm Calm - -   Partly Cloudy
10:00 AM 84.2 °F 92.3 °F 75.2 °F 74% 29.86 in 6.2 mi Calm Calm - N/A   Scattered Clouds
11:00 AM 86.0 °F 96.9 °F 77.0 °F 74% 29.86 in 6.2 mi Calm Calm - N/A   Scattered Clouds
12:00 PM 89.6 °F 102.2 °F 77.0 °F 66% 29.83 in 6.2 mi Calm Calm - N/A   Scattered Clouds
1:00 PM 91 °F - 77 °F 56% 29.80 in 6 mi Calm Calm - -   Partly Cloudy
1:00 PM 91.4 °F 105.1 °F 77.0 °F 63% 29.80 in 6.2 mi Calm Calm - N/A   Scattered Clouds
2:00 PM 93.2 °F 105.0 °F 75.2 °F 56% 29.74 in 6.2 mi Calm Calm - N/A   Scattered Clouds
3:00 PM 95.0 °F 107.4 °F 75.2 °F 53% 29.71 in 6.2 mi East 5.8 mph - N/A   Scattered Clouds
4:00 PM 95 °F - 74 °F 42% 29.70 in 6 mi Calm Calm - -   Partly Cloudy
5:00 PM 95.0 °F 112.2 °F 78.8 °F 59% 29.68 in 6.2 mi Calm Calm - N/A   Scattered Clouds
6:30 PM 93.2 °F 105.0 °F 75.2 °F 56% 29.74 in 3.7 mi WSW 28.8 mph - N/A   Mostly Cloudy
7:00 PM 80 °F - 72 °F 70% 29.80 in 3 mi WSW 15.0 mph - -   Mostly Cloudy
7:00 PM 78.8 °F - 75.2 °F 89% 29.80 in 3.1 mi WSW 15.0 mph - N/A   Scattered Clouds
7:30 PM 77.0 °F - 73.4 °F 89% 29.83 in 3.1 mi SSW 5.8 mph - N/A Rain Rain
8:00 PM 77.0 °F - 75.2 °F 94% 29.83 in 3.1 mi South 5.8 mph - N/A Rain , Thunderstorm Thunderstorms and Rain
9:00 PM 75.2 °F - 73.4 °F 94% 29.83 in 3.1 mi SW 5.8 mph - N/A Rain Rain
10:00 PM 77 °F - 75 °F 91% 29.86 in 3 mi Calm Calm - - Rain Light Rain